TimeCDT,TemperatureF,Dew PointF,Humidity,Sea Level PressureIn,VisibilityMPH,Wind Direction,Wind SpeedMPH,Gust SpeedMPH,PrecipitationIn,Events,Conditions,WindDirDegrees,DateUTC
12:15 AM,64.6,36.1,35,30.00,10.0,SW,3.5,-,N/A,,Clear,220,2013-05-08 05:15:00
12:35 AM,64.2,36.5,36,30.00,10.0,Calm,Calm,-,N/A,,Clear,0,2013-05-08 05:35:00
12:55 AM,62.4,37.4,40,30.00,10.0,Calm,Calm,-,N/A,,Clear,0,2013-05-08 05:55:00
1:15 AM,59.5,38.5,46,30.00,10.0,Calm,Calm,-,N/A,,Clear,0,2013-05-08 06:15:00
1:35 AM,57.6,39.2,50,30.00,10.0,ESE,6.9,-,N/A,,Clear,110,2013-05-08 06:35:00
1:55 AM,57.2,40.6,54,30.00,10.0,ESE,5.8,-,N/A,,Clear,110,2013-05-08 06:55:00
2:15 AM,58.3,40.3,51,30.00,10.0,ESE,5.8,-,N/A,,Clear,120,2013-05-08 07:15:00
2:35 AM,57.9,40.3,52,30.00,10.0,SSE,5.8,-,N/A,,Clear,150,2013-05-08 07:35:00
2:55 AM,56.7,40.6,55,30.00,10.0,South,3.5,-,N/A,,Clear,170,2013-05-08 07:55:00
3:15 AM,54.1,41.2,62,30.00,10.0,Calm,Calm,-,N/A,,Clear,0,2013-05-08 08:15:00
3:35 AM,56.7,39.7,53,30.01,10.0,Calm,Calm,-,N/A,,Clear,0,2013-05-08 08:35:00
3:55 AM,57.4,39.7,52,30.01,10.0,Calm,Calm,-,N/A,,Clear,0,2013-05-08 08:55:00
4:15 AM,55.8,39.6,55,30.01,10.0,Calm,Calm,-,N/A,,Clear,0,2013-05-08 09:15:00
4:35 AM,54.7,39.6,57,30.00,10.0,Calm,Calm,-,N/A,,Clear,0,2013-05-08 09:35:00
4:55 AM,56.5,39.4,53,30.01,10.0,Calm,Calm,-,N/A,,Clear,0,2013-05-08 09:55:00
5:15 AM,56.8,39.2,52,30.01,10.0,ESE,4.6,-,N/A,,Clear,110,2013-05-08 10:15:00
5:35 AM,52.5,41.0,65,30.00,10.0,ESE,5.8,-,N/A,,Clear,110,2013-05-08 10:35:00
5:55 AM,55.9,40.6,56,30.01,10.0,ESE,5.8,-,N/A,,Clear,110,2013-05-08 10:55:00
6:15 AM,52.9,41.5,65,30.02,10.0,ESE,5.8,-,N/A,,Clear,120,2013-05-08 11:15:00
6:35 AM,56.7,42.6,59,30.02,10.0,SE,6.9,-,N/A,,Clear,140,2013-05-08 11:35:00
6:55 AM,57.6,45.3,64,30.03,10.0,Calm,Calm,-,N/A,,Clear,0,2013-05-08 11:55:00
7:15 AM,57.7,48.9,72,30.03,10.0,Calm,Calm,-,N/A,,Clear,0,2013-05-08 12:15:00
7:35 AM,60.4,49.1,66,30.03,10.0,Calm,Calm,-,N/A,,Clear,0,2013-05-08 12:35:00
7:55 AM,63.7,43.7,48,30.03,10.0,Calm,Calm,-,N/A,,Clear,0,2013-05-08 12:55:00
8:15 AM,66.0,44.8,46,30.03,10.0,Calm,Calm,-,N/A,,Clear,0,2013-05-08 13:15:00
8:35 AM,68.9,43.9,40,30.03,10.0,SE,3.5,-,N/A,,Clear,140,2013-05-08 13:35:00
8:55 AM,70.5,45.9,41,30.03,10.0,Calm,Calm,-,N/A,,Clear,0,2013-05-08 13:55:00
9:15 AM,70.9,47.3,43,30.03,10.0,SE,3.5,-,N/A,,Clear,140,2013-05-08 14:15:00
9:35 AM,72.0,47.5,42,30.03,10.0,SE,5.8,-,N/A,,Clear,130,2013-05-08 14:35:00
9:55 AM,72.7,46.0,39,30.03,10.0,SE,3.5,-,N/A,,Clear,130,2013-05-08 14:55:00
10:15 AM,73.8,44.1,34,30.03,10.0,South,4.6,-,N/A,,Clear,190,2013-05-08 15:15:00
10:35 AM,74.5,42.8,32,30.03,10.0,SSE,3.5,-,N/A,,Clear,150,2013-05-08 15:35:00
10:55 AM,75.0,43.9,33,30.03,10.0,South,4.6,-,N/A,,Clear,170,2013-05-08 15:55:00
11:15 AM,75.2,41.4,30,30.03,10.0,SE,4.6,-,N/A,,Scattered Clouds,140,2013-05-08 16:15:00
11:35 AM,75.9,41.2,29,30.03,10.0,SSW,6.9,-,N/A,,Mostly Cloudy,210,2013-05-08 16:35:00
11:55 AM,77.9,40.1,26,30.02,10.0,SSE,10.4,-,N/A,,Mostly Cloudy,160,2013-05-08 16:55:00
12:15 PM,77.0,37.8,24,30.02,10.0,SSW,8.1,-,N/A,,Mostly Cloudy,200,2013-05-08 17:15:00
12:35 PM,76.6,41.0,28,30.02,10.0,SW,6.9,-,N/A,,Mostly Cloudy,230,2013-05-08 17:35:00
12:55 PM,76.8,39.9,27,30.01,10.0,SW,4.6,-,N/A,,Scattered Clouds,220,2013-05-08 17:55:00
1:15 PM,76.8,39.0,26,30.01,10.0,Calm,Calm,-,N/A,,Scattered Clouds,0,2013-05-08 18:15:00
1:35 PM,77.5,39.9,26,30.00,10.0,SW,4.6,-,N/A,,Scattered Clouds,230,2013-05-08 18:35:00
1:55 PM,78.1,40.8,26,30.00,10.0,SSW,9.2,-,N/A,,Clear,210,2013-05-08 18:55:00
2:15 PM,77.9,40.5,26,30.00,10.0,South,5.8,-,N/A,,Clear,180,2013-05-08 19:15:00
2:35 PM,77.9,41.0,27,30.00,10.0,SE,5.8,-,N/A,,Scattered Clouds,140,2013-05-08 19:35:00
2:55 PM,77.2,39.7,26,29.99,10.0,Calm,Calm,-,N/A,,Mostly Cloudy,0,2013-05-08 19:55:00
3:35 PM,78.3,40.8,26,29.98,10.0,SSE,6.9,-,N/A,,Scattered Clouds,160,2013-05-08 20:35:00
3:55 PM,77.5,41.9,28,29.98,10.0,SSW,3.5,-,N/A,,Mostly Cloudy,200,2013-05-08 20:55:00
4:15 PM,78.8,41.0,26,29.97,10.0,SSW,3.5,-,N/A,,Overcast,210,2013-05-08 21:15:00
4:35 PM,79.5,42.1,26,29.97,10.0,South,6.9,-,N/A,,Overcast,180,2013-05-08 21:35:00
4:55 PM,77.2,40.3,27,29.97,10.0,Calm,Calm,-,N/A,,Overcast,0,2013-05-08 21:55:00
5:15 PM,78.4,40.8,26,29.96,10.0,SE,9.2,-,N/A,,Mostly Cloudy,130,2013-05-08 22:15:00
5:35 PM,76.5,42.6,30,29.96,10.0,South,6.9,-,N/A,,Mostly Cloudy,190,2013-05-08 22:35:00
5:55 PM,74.8,43.9,33,29.96,10.0,SSW,9.2,-,N/A,,Overcast,210,2013-05-08 22:55:00
6:15 PM,77.0,43.5,30,29.96,10.0,SW,6.9,-,N/A,,Overcast,220,2013-05-08 23:15:00
6:35 PM,75.0,44.4,34,29.96,10.0,SW,5.8,-,N/A,,Mostly Cloudy,230,2013-05-08 23:35:00
6:55 PM,72.7,46.8,40,29.96,10.0,SSW,3.5,-,N/A,,Mostly Cloudy,200,2013-05-08 23:55:00
7:15 PM,71.8,46.6,41,29.96,10.0,SW,6.9,-,N/A,,Mostly Cloudy,220,2013-05-09 00:15:00
7:35 PM,70.9,48.6,45,29.97,10.0,SSW,5.8,-,N/A,,Overcast,200,2013-05-09 00:35:00
7:55 PM,68.5,49.3,50,29.98,10.0,WSW,16.1,21.9,N/A,,Overcast,240,2013-05-09 00:55:00
8:15 PM,67.1,50.0,54,29.98,10.0,WSW,10.4,-,N/A,,Overcast,250,2013-05-09 01:15:00
8:35 PM,66.0,50.4,57,29.98,10.0,West,6.9,-,N/A,,Overcast,270,2013-05-09 01:35:00
8:55 PM,64.6,51.1,62,29.98,10.0,WNW,3.5,-,N/A,,Overcast,290,2013-05-09 01:55:00
9:15 PM,64.8,50.2,59,29.98,10.0,Calm,Calm,-,N/A,,Overcast,0,2013-05-09 02:15:00
9:35 PM,64.0,50.4,61,29.98,10.0,Calm,Calm,-,N/A,,Overcast,0,2013-05-09 02:35:00
10:15 PM,63.3,50.9,64,30.00,10.0,West,5.8,-,N/A,,Clear,270,2013-05-09 03:15:00
10:35 PM,62.6,51.1,66,30.00,10.0,West,6.9,-,N/A,,Scattered Clouds,260,2013-05-09 03:35:00
11:35 PM,61.2,54.1,78,30.00,10.0,West,8.1,-,N/A,,Overcast,270,2013-05-09 04:35:00
11:55 PM,60.8,54.5,80,30.00,10.0,West,6.9,-,N/A,,Overcast,270,2013-05-09 04:55:00